Location: Rosenheim
(47.8408°N, 12.2113°E)
Time: 10:45:51
(UTC+01:00)

Amateur Radio Satellites - All Passes

Search period start: 18 January 2018 10:15
Search period end: 19 January 2018 10:15
Location: Rosenheim, 47.8408°N, 12.2113°E

Satellite Date Start Highest point End Downlink Frequencies (MHz)
Time Altitude Azimuth
AIST 2D 18 Jan 10:21:32 10:25:03 70° 75° (ENE) 10:28:34 435.315
PCSat 18 Jan 10:21:47 10:26:49 41° 114° (ESE) 10:31:53 145.827
O/OREOS (USA 219) 18 Jan 10:30:35 10:35:03 66° 62° (ENE) 10:39:30 437.305
EO-79 18 Jan 10:33:45 10:37:31 33° 67° (ENE) 10:41:21 145.935-145.965
DUCHIFAT 1 18 Jan 10:37:02 10:40:37 28° 66° (ENE) 10:44:14 145.980
Max Valier Satellite 18 Jan 10:58:58 11:02:07 26° 293° (WNW) 11:05:15 145.860
POLYITAN 1 18 Jan 11:07:18 11:11:31 72° 74° (ENE) 11:15:46 437.675
BEESAT 3 18 Jan 11:09:07 11:13:06 83° 307° (NW) 11:17:07 437.485
DELFI C3 18 Jan 11:13:18 11:15:40 16° 298° (WNW) 11:18:03 145.870
PRISM 18 Jan 11:21:00 11:23:03 13° 270° (W) 11:25:05 437.425
LO-87 18 Jan 11:21:42 11:25:15 52° 100° (E) 11:28:48 145.935 - 145.965
EO-88 18 Jan 11:26:02 11:28:44 20° 295° (WNW) 11:31:26 145.990 - 145.960
NANOSAT C BR1 18 Jan 11:26:08 11:30:21 83° 257° (WSW) 11:34:37 145.865
RS-15 18 Jan 11:26:20 11:38:08 48° 329° (NNW) 11:49:38 29.354- 29.394
SO-50 18 Jan 11:26:52 11:27:51 11° 10° (N) 11:28:51 436.795
Oscar 19 18 Jan 11:29:34 11:33:28 22° 59° (ENE) 11:37:22 437.125/150
ESTCUBE 1 18 Jan 11:32:08 11:36:33 51° 100° (E) 11:40:55 437.505/2401.250
QB50P2 18 Jan 11:36:52 11:40:59 51° 260° (W) 11:45:10 145.880/145.840
YUBILEINY 18 Jan 11:37:20 11:45:33 47° 272° (W) 11:53:42 435.215
VELOX 1 18 Jan 11:48:32 11:49:46 11° 87° (E) 11:51:01 145.980
BEESAT 2 18 Jan 11:48:55 11:52:56 72° 125° (SE) 11:56:59 435.950
BUGSAT 1 18 Jan 11:51:05 11:54:52 38° 69° (ENE) 11:58:43 437.445
AO-7 18 Jan 12:04:54 12:10:07 18° 39° (NE) 12:15:20 .
PCSat 18 Jan 12:05:10 12:10:15 40° 315° (NW) 12:15:22 145.827
AO-91 18 Jan 12:08:01 12:11:00 30° 68° (ENE) 12:14:03 145.960
SPROUT 18 Jan 12:08:45 12:12:37 31° 96° (E) 12:16:27 437.525
EO-79 18 Jan 12:09:43 12:13:18 27° 265° (W) 12:16:56 145.935-145.965
O/OREOS (USA 219) 18 Jan 12:11:20 12:13:55 15° 261° (W) 12:16:31 437.305
DUCHIFAT 1 18 Jan 12:12:25 12:16:11 32° 264° (W) 12:20:00 145.980
Gurwin Techsat 1B 18 Jan 12:27:25 12:32:30 48° 68° (ENE) 12:37:36 435.225
POLYITAN 1 18 Jan 12:45:53 12:47:47 13° 272° (W) 12:49:42 437.675
BEESAT 3 18 Jan 12:48:37 12:51:14 17° 328° (NNW) 12:53:51 437.485
LO-87 18 Jan 12:56:16 12:58:14 14° 298° (WNW) 13:00:13 145.935 - 145.965
AO-85 18 Jan 13:04:53 13:08:49 63° 124° (SE) 13:13:06 145.980
SO-50 18 Jan 13:06:13 13:10:00 23° 34° (NNE) 13:13:48 436.795
Oscar 19 18 Jan 13:07:11 13:12:20 64° 258° (WSW) 13:17:32 437.125/150
ESTCUBE 1 18 Jan 13:09:41 13:13:01 21° 298° (WNW) 13:16:19 437.505/2401.250
VELOX 1 18 Jan 13:22:25 13:26:50 86° 282° (WNW) 13:31:13 145.980
BUGSAT 1 18 Jan 13:27:13 13:30:22 21° 267° (W) 13:33:34 437.445
BEESAT 2 18 Jan 13:28:01 13:31:05 20° 325° (NW) 13:34:09 435.950
RS-15 18 Jan 13:43:27 13:54:16 35° 2° (N) 14:04:40 29.354- 29.394
UKube-1 18 Jan 13:44:14 13:47:35 22° 94° (E) 13:50:54 .
SPROUT 18 Jan 13:44:42 13:48:26 29° 294° (WNW) 13:52:09 437.525
AO-91 18 Jan 13:45:17 13:47:38 18° 267° (W) 13:50:01 145.960
DX 1 18 Jan 13:48:45 13:52:49 38° 98° (E) 13:56:51 434.975-435.025
PCSat 18 Jan 13:52:30 13:55:12 14° 338° (NNW) 13:57:54 145.827
AO-7 18 Jan 13:53:06 14:01:15 60° 62° (ENE) 14:09:25 .
50 SAT 18 Jan 14:06:12 14:09:17 54° 100° (E) 14:12:21 437.505
ITAMSAT 1 18 Jan 14:07:08 14:11:40 32° 63° (ENE) 14:16:12 435.822/435.867
Gurwin Techsat 1B 18 Jan 14:08:12 14:12:40 27° 266° (W) 14:17:09 435.225
M-CUBED/EXP-1 PRIME 18 Jan 14:18:37 14:21:12 16° 56° (NE) 14:23:41 437.505
BEESAT 18 Jan 14:29:57 14:31:59 12° 87° (E) 14:34:01 436.000
SO-50 18 Jan 14:46:16 14:50:58 79° 234° (SW) 14:55:44 436.795
AO-85 18 Jan 14:46:17 14:49:39 23° 326° (NW) 14:53:14 145.980
MOZHAYETS 4 18 Jan 14:47:22 14:51:29 30° 95° (E) 14:55:34
VELOX 1 18 Jan 15:00:54 15:02:34 12° 304° (WNW) 15:04:14 145.980
UKube-1 18 Jan 15:19:41 15:23:46 42° 291° (WNW) 15:27:50 .
HO-68 18 Jan 15:23:43 15:24:32 10° 37° (NE) 15:25:22 435.675
ITUPSAT 1 18 Jan 15:23:54 15:28:25 38° 97° (E) 15:32:54 437.325
DX 1 18 Jan 15:25:16 15:28:50 25° 296° (WNW) 15:32:23 434.975-435.025
DOVE 4 18 Jan 15:27:36 15:31:32 36° 69° (ENE) 15:35:23 437.250
50 SAT 18 Jan 15:40:02 15:40:35 10° 298° (WNW) 15:41:06 437.505
ITAMSAT 1 18 Jan 15:46:09 15:51:00 40° 262° (W) 15:55:53 435.822/435.867
AO-7 18 Jan 15:46:46 15:54:22 38° 263° (W) 16:02:02 .
M-CUBED/EXP-1 PRIME 18 Jan 15:50:46 15:55:10 72° 252° (WSW) 15:59:17 437.505
RS-15 18 Jan 15:58:26 16:10:06 53° 35° (NE) 16:21:08 29.354- 29.394
BEESAT 18 Jan 16:05:35 16:10:25 87° 284° (WNW) 16:15:13 436.000
XW-2F 18 Jan 16:08:26 16:10:27 14° 61° (ENE) 16:12:26 145.980 - 146.000
KAITUO 1B 18 Jan 16:12:45 16:14:12 12° 60° (ENE) 16:15:38 145.475/437.950
XW-2D 18 Jan 16:14:44 16:17:20 18° 64° (ENE) 16:19:56 145.860 - 145.880
CUBESAT XI-V 18 Jan 16:18:57 16:23:34 64° 101° (ESE) 16:28:08 437.345
MOZHAYETS 4 18 Jan 16:24:27 16:28:38 34° 293° (WNW) 16:32:48
NUDT-PHONESAT 18 Jan 16:28:23 16:30:44 16° 63° (ENE) 16:33:05 437.300
SO-50 18 Jan 16:28:58 16:30:41 12° 252° (WSW) 16:32:24 436.795
AO-85 18 Jan 16:31:25 16:31:45 10° 351° (N) 16:32:05 145.980
XW-2B 18 Jan 16:31:33 16:34:42 25° 67° (ENE) 16:37:52 145.730 - 145.750
KKS-1 18 Jan 16:39:19 16:42:15 17° 91° (E) 16:45:10 437.445
LilacSat-2 18 Jan 16:54:50 16:58:34 48° 72° (ENE) 17:02:18 437.200
CUTE-I 18 Jan 16:57:11 17:02:15 47° 68° (ENE) 17:07:19 437.470
XW-2C 18 Jan 17:00:58 17:04:42 51° 72° (ENE) 17:08:27 145.795 - 145.815
ITUPSAT 1 18 Jan 17:01:58 17:06:07 30° 296° (WNW) 17:10:16 437.325
HO-68 18 Jan 17:03:51 17:10:21 39° 60° (ENE) 17:16:51 435.675
STARS 18 Jan 17:04:47 17:06:41 13° 88° (E) 17:08:36 437.465
DOVE 4 18 Jan 17:05:52 17:09:21 23° 266° (W) 17:12:45 437.250
PCSat 18 Jan 17:23:04 17:26:55 19° 31° (NNE) 17:30:47 145.827
XW-2F 18 Jan 17:40:19 17:44:05 60° 260° (W) 17:47:52 145.980 - 146.000
CUBEBUG 2 18 Jan 17:43:27 17:47:19 31° 66° (ENE) 17:51:18 437.445
KAITUO 1B 18 Jan 17:43:52 17:47:37 71° 257° (WSW) 17:51:24 145.475/437.950
BEESAT 18 Jan 17:45:04 17:47:28 14° 304° (NW) 17:49:53 436.000
BEESAT 3 18 Jan 17:45:27 17:48:49 26° 39° (NE) 17:52:07 437.485
XW-2D 18 Jan 17:47:30 17:51:11 44° 261° (W) 17:54:53 145.860 - 145.880
AAUSAT CUBESAT 2 18 Jan 17:48:12 17:50:37 15° 61° (ENE) 17:53:02 437.432
NO-84 18 Jan 17:51:33 17:53:55 21° 136° (SE) 17:56:13 435.350 FM
UWE-3 18 Jan 17:55:24 17:59:01 25° 64° (ENE) 18:02:44 435.000/436.395/437.385
SEEDS 18 Jan 17:55:35 17:59:29 37° 69° (ENE) 18:03:23 437.485
CUBESAT XI-V 18 Jan 17:57:21 18:00:28 18° 300° (WNW) 18:03:32 437.345
NUDT-PHONESAT 18 Jan 18:00:35 18:04:13 47° 261° (W) 18:07:51 437.300
CUTE 1.7 + AOD 2 18 Jan 18:01:50 18:06:04 70° 75° (ENE) 18:10:20 437.475
XW-2B 18 Jan 18:05:21 18:08:46 30° 264° (W) 18:12:11 145.730 - 145.750
RS-15 18 Jan 18:11:30 18:23:02 64° 243° (WSW) 18:33:57 29.354- 29.394
AO-85 18 Jan 18:12:40 18:14:19 12° 16° (NNE) 18:15:59 145.980
KKS-1 18 Jan 18:14:47 18:19:10 57° 289° (WNW) 18:23:32 437.445
ZACube-1 18 Jan 18:25:39 18:29:24 27° 65° (ENE) 18:33:14 437.345
BEESAT 2 18 Jan 18:26:06 18:29:18 22° 36° (NE) 18:32:28 435.950
LilacSat-2 18 Jan 18:30:42 18:33:05 16° 269° (W) 18:35:29 437.200
AO-73 18 Jan 18:34:12 18:38:01 29° 66° (ENE) 18:41:55 145.935
XW-2C 18 Jan 18:37:01 18:39:10 14° 270° (W) 18:41:20 145.795 - 145.815
CUTE-I 18 Jan 18:37:59 18:42:30 28° 266° (W) 18:47:01 437.470
STARS 18 Jan 18:39:08 18:43:34 77° 287° (WNW) 18:47:58 437.465
HO-68 18 Jan 18:51:00 18:57:55 51° 260° (W) 19:04:53 435.675
PCSat 18 Jan 19:05:52 19:11:18 71° 54° (NE) 19:16:43 145.827
XW-2A 18 Jan 19:06:38 19:10:03 80° 75° (ENE) 19:13:30 145.665 - 145.685
Oscar 11 18 Jan 19:10:29 19:14:34 41° 70° (ENE) 19:18:41 .
CUBEBUG 2 18 Jan 19:20:01 19:23:54 31° 266° (W) 19:27:54 437.445
AAUSAT CUBESAT 2 18 Jan 19:21:29 19:25:35 63° 259° (W) 19:29:42 437.432
BEESAT 3 18 Jan 19:22:45 19:26:30 44° 239° (WSW) 19:30:11 437.485
NO-84 18 Jan 19:28:02 19:30:54 49° 334° (NNW) 19:33:40 435.350 FM
UWE-3 18 Jan 19:31:06 19:35:15 40° 263° (W) 19:39:34 435.000/436.395/437.385
SEEDS 18 Jan 19:31:52 19:35:16 23° 267° (W) 19:38:41 437.485
CUTE 1.7 + AOD 2 18 Jan 19:40:19 19:42:22 13° 272° (W) 19:44:25 437.475
STRAND 1 18 Jan 19:42:41 19:47:49 66° 102° (ESE) 19:52:56 437.568
AO-85 18 Jan 19:52:00 19:56:12 30° 39° (NE) 20:00:41 145.980
ZACube-1 18 Jan 20:01:25 20:05:31 37° 264° (W) 20:09:45 437.345
BEESAT 2 18 Jan 20:03:22 20:07:22 62° 236° (SW) 20:11:17 435.950
Max Valier Satellite 18 Jan 20:07:15 20:10:04 20° 65° (ENE) 20:12:53 145.860
AO-73 18 Jan 20:10:06 20:14:09 34° 264° (W) 20:18:18 145.935
STARS 18 Jan 20:17:54 20:19:08 11° 305° (NW) 20:20:22 437.465
DELFI C3 18 Jan 20:25:28 20:29:14 47° 72° (ENE) 20:33:00 145.870
RS-15 18 Jan 20:26:52 20:32:46 16° 266° (W) 20:38:34 29.354- 29.394
FO-29 18 Jan 20:27:41 20:32:58 68° 103° (ESE) 20:38:08 435.910
EO-88 18 Jan 20:32:36 20:35:39 25° 67° (ENE) 20:38:42 145.990 - 145.960
Oscar 11 18 Jan 20:47:25 20:50:52 23° 267° (W) 20:54:20 .
PCSat 18 Jan 20:50:12 20:54:10 21° 253° (WSW) 20:58:06 145.827
ESTCUBE 1 18 Jan 21:02:13 21:03:03 10° 55° (NE) 21:03:53 437.505/2401.250
nSIGHT-1 18 Jan 21:02:56 21:04:39 14° 136° (SE) 21:06:23 .
ISS 18 Jan 21:05:41 21:06:28 11° 133° (SE) 21:07:17 437.550
NO-84 18 Jan 21:06:19 21:08:31 20° 354° (N) 21:10:42 435.350 FM
STRAND 1 18 Jan 21:22:48 21:26:32 21° 301° (WNW) 21:30:16 437.568
AO-85 18 Jan 21:32:07 21:36:56 60° 238° (WSW) 21:42:05 145.980
TIGRISAT 18 Jan 21:38:23 21:42:52 42° 98° (E) 21:47:19 435.000
Max Valier Satellite 18 Jan 21:40:13 21:43:39 35° 263° (W) 21:47:08 145.860
UNISAT 6 18 Jan 21:52:48 21:57:29 63° 101° (E) 22:02:09 437.425
LO-87 18 Jan 22:00:33 22:03:47 34° 70° (ENE) 22:07:04 145.935 - 145.965
DELFI C3 18 Jan 22:01:45 22:04:14 16° 269° (W) 22:06:43 145.870
EO-88 18 Jan 22:06:05 22:09:13 26° 265° (W) 22:12:21 145.990 - 145.960
FO-29 18 Jan 22:13:54 22:17:34 19° 303° (WNW) 22:21:09 435.910
ESTCUBE 1 18 Jan 22:34:30 22:39:00 71° 74° (ENE) 22:43:32 437.505/2401.250
nSIGHT-1 18 Jan 22:37:12 22:40:22 75° 152° (SSE) 22:43:32 .
ISS 18 Jan 22:39:09 22:42:22 58° 151° (SSE) 22:45:36 437.550
NO-84 18 Jan 22:43:55 22:46:20 25° 16° (NNE) 22:48:47 435.350 FM
YUBILEINY 18 Jan 22:45:36 22:53:48 45° 87° (E) 23:02:00 435.215
VELOX 1 18 Jan 22:48:10 22:50:57 17° 60° (ENE) 22:53:44 145.980
PRISM 18 Jan 22:55:59 23:00:02 62° 102° (ESE) 23:04:04 437.425
SPROUT 18 Jan 23:04:56 23:08:50 36° 68° (ENE) 23:12:45 437.525
NANOSAT C BR1 18 Jan 23:08:29 23:10:24 13° 88° (E) 23:12:20 145.865
TIGRISAT 18 Jan 23:15:26 23:19:21 27° 296° (WNW) 23:23:15 435.000
AIST 2D 18 Jan 23:15:49 23:19:14 51° 99° (E) 23:22:37 435.315
QB50P2 18 Jan 23:18:36 23:21:50 20° 92° (E) 23:25:02 145.880/145.840
UNISAT 6 18 Jan 23:30:27 23:33:44 19° 299° (WNW) 23:37:01 437.425
LO-87 18 Jan 23:34:45 23:37:18 18° 268° (W) 23:39:51 145.935 - 145.965
EO-79 18 Jan 23:49:59 23:53:59 37° 97° (E) 23:57:58 145.935-145.965
DUCHIFAT 1 18 Jan 23:52:22 23:56:09 30° 96° (E) 23:59:55 145.980
nSIGHT-1 19 Jan 00:13:39 00:16:41 42° 353° (N) 00:19:45 .
ESTCUBE 1 19 Jan 00:13:50 00:16:18 14° 271° (W) 00:18:46 437.505/2401.250
ISS 19 Jan 00:15:46 00:18:56 46° 350° (N) 00:22:08 437.550
NO-84 19 Jan 00:20:52 00:23:42 72° 216° (SW) 00:26:39 435.350 FM
VELOX 1 19 Jan 00:22:34 00:26:55 64° 258° (WSW) 00:31:18 145.980
POLYITAN 1 19 Jan 00:24:04 00:28:23 84° 104° (ESE) 00:32:41 437.675
PRISM 19 Jan 00:32:29 00:34:51 15° 300° (WNW) 00:37:12 437.425
50 SAT 19 Jan 00:33:55 00:36:32 26° 69° (ENE) 00:39:10 437.505
SPROUT 19 Jan 00:41:19 00:44:48 24° 266° (W) 00:48:19 437.525
Gurwin Techsat 1B 19 Jan 00:41:33 00:44:16 14° 87° (E) 00:46:58 435.225
UKube-1 19 Jan 00:41:35 00:45:18 29° 65° (ENE) 00:49:00 .
YUBILEINY 19 Jan 00:42:09 00:50:35 48° 289° (WNW) 00:59:03 435.215
NANOSAT C BR1 19 Jan 00:42:20 00:46:36 72° 286° (WNW) 00:50:50 145.865
O/OREOS (USA 219) 19 Jan 00:46:22 00:50:33 38° 108° (ESE) 00:54:44 437.305
DX 1 19 Jan 00:47:10 00:51:21 51° 70° (ENE) 00:55:34 434.975-435.025
AIST 2D 19 Jan 00:50:18 00:51:59 13° 298° (WNW) 00:53:40 435.315
QB50P2 19 Jan 00:53:43 00:57:49 44° 290° (WNW) 01:01:53 145.880/145.840
ITUPSAT 1 19 Jan 01:00:18 01:01:28 11° 53° (NE) 01:02:38 437.325
BUGSAT 1 19 Jan 01:04:03 01:08:05 41° 98° (E) 01:12:07 437.445
Oscar 19 19 Jan 01:15:21 01:20:06 35° 96° (E) 01:24:46 437.125/150
EO-79 19 Jan 01:26:03 01:29:34 25° 295° (WNW) 01:33:04 145.935-145.965
DUCHIFAT 1 19 Jan 01:28:02 01:31:45 30° 294° (WNW) 01:35:28 145.980
AO-91 19 Jan 01:28:27 01:32:37 51° 100° (E) 01:37:14 145.960
BEESAT 19 Jan 01:38:46 01:42:29 23° 61° (ENE) 01:46:12 436.000
nSIGHT-1 19 Jan 01:50:06 01:53:13 50° 13° (NNE) 01:56:20 .
CUBESAT XI-V 19 Jan 01:50:45 01:53:07 14° 57° (ENE) 01:55:28 437.345
MOZHAYETS 4 19 Jan 01:52:08 01:56:30 43° 69° (ENE) 02:00:55
ISS 19 Jan 01:52:36 01:55:47 46° 10° (N) 01:58:59 437.550
AO-7 19 Jan 01:53:29 01:57:00 13° 83° (E) 02:00:29 .
POLYITAN 1 19 Jan 02:01:33 02:03:32 13° 302° (WNW) 02:05:31 437.675
50 SAT 19 Jan 02:06:06 02:08:16 18° 266° (W) 02:10:28 437.505
UKube-1 19 Jan 02:17:23 02:21:14 32° 263° (W) 02:25:07 .
Gurwin Techsat 1B 19 Jan 02:19:35 02:24:57 89° 285° (WNW) 02:30:17 435.225
DX 1 19 Jan 02:24:50 02:27:50 18° 268° (W) 02:30:51 434.975-435.025
O/OREOS (USA 219) 19 Jan 02:26:08 02:30:03 28° 307° (NW) 02:33:58 437.305
ITUPSAT 1 19 Jan 02:33:39 02:38:23 66° 72° (ENE) 02:43:10 437.325
BUGSAT 1 19 Jan 02:39:53 02:43:12 23° 296° (WNW) 02:46:31 437.445
YUBILEINY 19 Jan 02:47:05 02:50:11 12° 316° (NW) 02:53:17 435.215
Oscar 19 19 Jan 02:54:42 02:59:25 36° 295° (WNW) 03:04:05 437.125/150
AO-91 19 Jan 03:05:45 03:08:51 20° 295° (WNW) 03:12:11 145.960
BEESAT 19 Jan 03:15:17 03:19:56 51° 260° (W) 03:24:36 436.000
CUBESAT XI-V 19 Jan 03:25:05 03:29:48 90° 273° (W) 03:34:31 437.345
nSIGHT-1 19 Jan 03:26:20 03:29:24 44° 212° (SSW) 03:32:27 .
ISS 19 Jan 03:29:07 03:32:22 59° 209° (SSW) 03:35:36 437.550
MOZHAYETS 4 19 Jan 03:30:05 03:33:50 24° 267° (W) 03:37:36
KKS-1 19 Jan 03:40:18 03:43:53 25° 63° (ENE) 03:47:29 437.445
AO-7 19 Jan 03:43:10 03:51:31 62° 104° (ESE) 03:59:45 .
ITAMSAT 1 19 Jan 03:54:55 04:00:01 54° 101° (E) 04:05:07 435.822/435.867
Gurwin Techsat 1B 19 Jan 04:00:59 04:04:10 16° 305° (NW) 04:07:20 435.225
STARS 19 Jan 04:04:06 04:07:05 18° 61° (ENE) 04:10:06 437.465
ITUPSAT 1 19 Jan 04:13:38 04:16:40 17° 270° (W) 04:19:44 437.325
DOVE 4 19 Jan 04:59:12 05:03:27 64° 101° (E) 05:07:53 437.250
M-CUBED/EXP-1 PRIME 19 Jan 05:00:21 05:03:36 39° 104° (ESE) 05:06:43 437.505
SO-50 19 Jan 05:05:52 05:08:10 14° 109° (ESE) 05:10:28 436.795
CUBESAT XI-V 19 Jan 05:06:15 05:07:50 11° 274° (W) 05:09:25 437.345
ISS 19 Jan 05:07:23 05:08:16 11° 227° (SW) 05:09:09 437.550
XW-2F 19 Jan 05:10:54 05:11:51 11° 88° (E) 05:12:48 145.980 - 146.000
CUTE-I 19 Jan 05:12:07 05:14:45 14° 87° (E) 05:17:24 437.470
KKS-1 19 Jan 05:16:05 05:20:15 40° 262° (W) 05:24:26 437.445
XW-2D 19 Jan 05:17:22 05:19:33 15° 90° (E) 05:21:42 145.860 - 145.880
STRAND 1 19 Jan 05:24:38 05:28:23 21° 59° (ENE) 05:32:09 437.568
NUDT-PHONESAT 19 Jan 05:28:29 05:30:02 12° 89° (E) 05:31:36 437.300
XW-2B 19 Jan 05:34:16 05:37:13 21° 93° (E) 05:40:08 145.730 - 145.750
ITAMSAT 1 19 Jan 05:34:59 05:39:10 25° 299° (WNW) 05:43:20 435.822/435.867
AO-7 19 Jan 05:36:24 05:43:54 38° 305° (NW) 05:51:23 .
STARS 19 Jan 05:38:45 05:43:02 56° 259° (W) 05:47:21 437.465
LilacSat-2 19 Jan 05:58:36 06:02:15 43° 98° (E) 06:05:52 437.200
XW-2C 19 Jan 06:03:56 06:07:36 46° 99° (E) 06:11:13 145.795 - 145.815
HO-68 19 Jan 06:14:57 06:20:57 28° 93° (E) 06:26:55 435.675
RS-15 19 Jan 06:32:09 06:38:46 17° 94° (E) 06:45:18 29.354- 29.394
M-CUBED/EXP-1 PRIME 19 Jan 06:35:28 06:37:44 17° 304° (NW) 06:39:55 437.505
DOVE 4 19 Jan 06:38:08 06:40:45 16° 298° (WNW) 06:43:25 437.250
FO-29 19 Jan 06:42:22 06:48:50 47° 68° (ENE) 06:54:35 435.910
XW-2F 19 Jan 06:42:40 06:46:24 66° 286° (WNW) 06:50:05 145.980 - 146.000
SO-50 19 Jan 06:43:28 06:47:57 84° 307° (NW) 06:52:32 436.795
KAITUO 1B 19 Jan 06:45:07 06:48:51 81° 283° (WNW) 06:52:31 145.475/437.950
CUTE-I 19 Jan 06:50:12 06:55:33 90° 120° (ESE) 07:00:53 437.470
XW-2D 19 Jan 06:50:21 06:54:00 48° 288° (WNW) 06:57:36 145.860 - 145.880
NUDT-PHONESAT 19 Jan 07:00:35 07:04:13 56° 287° (WNW) 07:07:48 437.300
AAUSAT CUBESAT 2 19 Jan 07:00:56 07:03:28 16° 90° (E) 07:05:58 437.432
STRAND 1 19 Jan 07:02:05 07:07:07 64° 258° (WSW) 07:12:13 437.568
CUBEBUG 2 19 Jan 07:06:18 07:10:52 45° 98° (E) 07:15:26 437.445
XW-2B 19 Jan 07:08:03 07:11:27 32° 291° (WNW) 07:14:50 145.730 - 145.750
SEEDS 19 Jan 07:10:59 07:15:00 44° 98° (E) 07:18:58 437.485
UWE-3 19 Jan 07:16:49 07:21:04 34° 95° (E) 07:25:18 435.000/436.395/437.385
CUTE 1.7 + AOD 2 19 Jan 07:18:46 07:23:01 88° 104° (ESE) 07:27:13 437.475
FALCONSAT 3 19 Jan 07:20:24 07:21:52 12° 181° (S) 07:23:20 435.103
UNISAT 6 19 Jan 07:21:38 07:23:06 11° 55° (NE) 07:24:34 437.425
AO-7 19 Jan 07:31:18 07:34:20 12° 330° (NNW) 07:37:22 .
LilacSat-2 19 Jan 07:33:39 07:36:12 17° 297° (WNW) 07:38:45 437.200
XW-2C 19 Jan 07:39:00 07:41:25 16° 297° (WNW) 07:43:50 145.795 - 145.815
ZACube-1 19 Jan 07:45:49 07:50:03 35° 96° (E) 07:54:11 437.345
AO-73 19 Jan 07:54:03 07:58:18 37° 96° (E) 08:02:29 145.935
XW-2A 19 Jan 07:57:10 08:00:29 49° 100° (E) 08:03:44 145.665 - 145.685
HO-68 19 Jan 08:02:07 08:09:12 67° 292° (WNW) 08:16:17 435.675
SO-50 19 Jan 08:25:45 08:29:06 20° 330° (NNW) 08:32:29 436.795
FO-29 19 Jan 08:27:48 08:34:00 35° 264° (W) 08:39:37 435.910
Oscar 11 19 Jan 08:29:52 08:34:07 52° 100° (E) 08:38:20 .
CUTE-I 19 Jan 08:31:39 08:34:52 17° 305° (NW) 08:38:07 437.470
AAUSAT CUBESAT 2 19 Jan 08:35:13 08:39:14 53° 287° (WNW) 08:43:13 437.432
RS-15 19 Jan 08:36:38 08:48:40 64° 117° (ESE) 09:00:30 29.354- 29.394
TIGRISAT 19 Jan 08:40:03 08:44:20 52° 70° (ENE) 08:48:45 435.000
CUBEBUG 2 19 Jan 08:43:21 08:47:14 25° 296° (WNW) 08:51:06 437.445
SEEDS 19 Jan 08:47:18 08:50:24 20° 296° (WNW) 08:53:28 437.485
YUBILEINY 19 Jan 08:51:11 08:58:25 28° 61° (ENE) 09:05:33 435.215
UWE-3 19 Jan 08:53:19 08:57:28 32° 293° (WNW) 09:01:34 435.000/436.395/437.385
UNISAT 6 19 Jan 08:54:34 08:58:59 79° 76° (ENE) 09:03:33 437.425
CUTE 1.7 + AOD 2 19 Jan 08:56:36 08:58:11 12° 302° (WNW) 08:59:46 437.475
Max Valier Satellite 19 Jan 09:07:01 09:09:27 16° 91° (E) 09:11:51 145.860
O/OREOS (USA 219) 19 Jan 09:13:56 09:17:17 20° 49° (NE) 09:20:38 437.305
BEESAT 3 19 Jan 09:17:04 09:18:31 12° 110° (ESE) 09:19:58 437.485
ZACube-1 19 Jan 09:22:14 09:26:13 30° 294° (WNW) 09:30:09 437.345
AO-73 19 Jan 09:30:30 09:34:23 28° 295° (WNW) 09:38:13 145.935
EO-88 19 Jan 09:30:56 09:33:40 20° 93° (E) 09:36:22 145.990 - 145.960
XW-2A 19 Jan 09:31:13 09:32:45 13° 298° (WNW) 09:34:18 145.665 - 145.685
DELFI C3 19 Jan 09:33:01 09:36:50 48° 99° (E) 09:40:38 145.870
POLYITAN 1 19 Jan 09:46:41 09:48:29 12° 58° (ENE) 09:50:16 437.675
PRISM 19 Jan 09:47:58 09:52:00 70° 73° (ENE) 09:56:03 437.425
PCSat 19 Jan 09:51:22 09:56:02 31° 111° (ESE) 10:00:45 145.827
HO-68 19 Jan 09:51:24 09:55:42 17° 314° (NW) 10:00:00 435.675
AIST 2D 19 Jan 09:52:54 09:56:03 31° 70° (ENE) 09:59:12 435.315
NANOSAT C BR1 19 Jan 10:03:33 10:06:07 16° 60° (ENE) 10:08:41 145.865
Oscar 11 19 Jan 10:06:50 10:09:53 19° 298° (WNW) 10:12:56 .
